Holdrege, NE

3:22 AM CST on November 21, 2019 (GMT -0600)
Brewster

Weather History for KHDE - October, 2019

Change the Weather History Date:

Tuesday, October 22, 2019

  Actual Average Record
Temperature  
Mean Temperature 46 °F -  
Max Temperature 61 °F 63 °F 87 °F (2003)
Min Temperature 32 °F 37 °F 20 °F (1987)
Degree Days  
Heating Degree Days 18    
Moisture  
Dew Point 29 °F    
Average Humidity 53    
Maximum Humidity 85    
Minimum Humidity 27    
Precipitation  
Precipitation 0.00 in - - ()
Sea Level Pressure  
Sea Level Pressure 29.98 in    
Wind  
Wind Speed 9 mph ()    
Max Wind Speed 17 mph    
Max Gust Speed 30 mph    
Visibility 10.0 miles    
Events      
Averages and records for this station are not official NWS values.
T = Trace of Precipitation, MM = Missing Value Source: Averaged Metar Reports

Daily Weather History Graph

Daily Weather History Graph

Search for Another Location

Airport or City:

Astronomy

Oct. 22, 2019 Rise Set
Actual Time 7:55 AM CDT 6:47 PM CDT
Civil Twilight 7:27 AM CDT 7:15 PM CDT
Nautical Twilight 6:56 AM CDT 7:46 PM CDT
Astronomical Twilight 6:24 AM CDT 8:18 PM CDT
Moon 1:05 AM CDT (10/22) 3:59 PM CDT (10/22)
Length of Visible Light 11h 47m
Length of Day
10h 51m
Last Quarter, 37% of the Moon is Illuminated
Oct 22
Last Quarter
Oct 27
New
Nov 4
First Quarter
Nov 12
Full
Nov 19
Last Quarter

Hourly Weather History & Observations

Time (CDT) Temp. Windchill Dew Point Humidity Pressure Visibility Wind Dir Wind Speed Gust Speed Precip Events Conditions
12:15 AM 38.7 °F 32.4 °F 26.6 °F 62% 29.98 in 10.0 mi WNW 9.2 mph - N/A   Clear
12:35 AM 38.8 °F 33.2 °F 26.6 °F 61% 29.98 in 10.0 mi WNW 8.1 mph - N/A   Clear
1:15 AM 37.4 °F 29.8 °F 26.4 °F 65% 29.99 in 10.0 mi West 11.5 mph - N/A   Clear
1:35 AM 37.9 °F 30.5 °F 26.6 °F 64% 29.99 in 10.0 mi West 11.5 mph - N/A   Clear
1:55 AM 38.7 °F 31.8 °F 26.4 °F 61% 29.99 in 10.0 mi WNW 10.4 mph 16.1 mph N/A   Clear
2:15 AM 39.4 °F 32.7 °F 26.6 °F 60% 29.99 in 10.0 mi West 10.4 mph - N/A   Clear
2:35 AM 38.1 °F 31.2 °F 26.6 °F 63% 30.00 in 10.0 mi West 10.4 mph - N/A   Clear
2:55 AM 37.6 °F 30.5 °F 26.2 °F 64% 30.00 in 10.0 mi West 10.4 mph - N/A   Clear
3:15 AM 36.9 °F 29.1 °F 26.6 °F 66% 30.00 in 10.0 mi West 11.5 mph - N/A   Clear
3:35 AM 36.9 °F 30.1 °F 27.0 °F 67% 30.00 in 10.0 mi West 9.2 mph - N/A   Clear
3:55 AM 36.7 °F 29.4 °F 27.5 °F 69% 30.01 in 10.0 mi West 10.4 mph 16.1 mph N/A   Clear
4:15 AM 35.6 °F 29.9 °F 27.0 °F 71% 30.01 in 10.0 mi WNW 6.9 mph - N/A   Clear
4:35 AM 33.8 °F 27.0 °F 26.6 °F 75% 30.01 in 10.0 mi West 8.1 mph - N/A   Clear
4:55 AM 33.6 °F 26.8 °F 26.8 °F 76% 30.01 in 10.0 mi West 8.1 mph - N/A   Clear
5:15 AM 33.3 °F 25.7 °F 27.1 °F 78% 30.01 in 10.0 mi West 9.2 mph - N/A   Clear
5:35 AM 32.9 °F 25.3 °F 27.5 °F 81% 30.01 in 10.0 mi West 9.2 mph - N/A   Clear
5:55 AM 34.3 °F 26.5 °F 28.4 °F 79% 30.02 in 10.0 mi West 10.4 mph - N/A   Clear
6:10 AM 33.4 °F 25.9 °F 28.4 °F 82% 30.02 in 10.0 mi West 9.2 mph - N/A   Clear
6:35 AM 33.3 °F 27.1 °F 28.4 °F 82% 30.03 in 10.0 mi West 6.9 mph - N/A   Clear
6:55 AM 33.1 °F 25.5 °F 28.4 °F 83% 30.04 in 10.0 mi West 9.2 mph - N/A   Clear
7:15 AM 32.9 °F 25.3 °F 28.8 °F 85% 30.04 in 10.0 mi West 9.2 mph - N/A   Clear
7:35 AM 33.3 °F 25.1 °F 29.1 °F 85% 30.05 in 10.0 mi West 10.4 mph - N/A   Clear
7:55 AM 34.7 °F 27.5 °F 29.8 °F 82% 30.05 in 10.0 mi West 9.2 mph - N/A   Clear
8:15 AM 34.7 °F 28.1 °F 29.8 °F 82% 30.05 in 10.0 mi West 8.1 mph - N/A   Clear
8:35 AM 35.2 °F 28.1 °F 30.2 °F 82% 30.06 in 10.0 mi West 9.2 mph - N/A   Clear
8:55 AM 36.0 °F 28.5 °F 30.6 °F 81% 30.06 in 10.0 mi West 10.4 mph - N/A   Clear
9:15 AM 37.6 °F 31.0 °F 31.3 °F 78% 30.07 in 10.0 mi West 9.2 mph - N/A   Clear
9:35 AM 39.9 °F 34.5 °F 32.0 °F 73% 30.07 in 10.0 mi West 8.1 mph - N/A   Clear
9:55 AM 43.0 °F 37.7 °F 32.7 °F 67% 30.07 in 10.0 mi West 9.2 mph - N/A   Clear
10:15 AM 45.9 °F 40.4 °F 32.7 °F 60% 30.07 in 10.0 mi West 11.5 mph 19.6 mph N/A   Clear
10:35 AM 47.5 °F - 32.7 °F 57% 30.07 in 10.0 mi WNW 12.7 mph - N/A   Clear
10:55 AM 48.9 °F - 32.5 °F 53% 30.07 in 10.0 mi WNW 11.5 mph - N/A   Clear
11:15 AM 50.0 °F - 32.9 °F 52% 30.06 in 10.0 mi West 11.5 mph 17.3 mph N/A   Clear
11:35 AM 51.8 °F - 32.4 °F 48% 30.06 in 10.0 mi West 13.8 mph 19.6 mph N/A   Clear
11:55 AM 53.2 °F - 32.4 °F 45% 30.06 in 10.0 mi West 12.7 mph 19.6 mph N/A   Clear
12:15 PM 54.7 °F - 31.8 °F 42% 30.05 in 10.0 mi West 15.0 mph 23.0 mph N/A   Clear
12:35 PM 55.4 °F - 31.6 °F 40% 30.03 in 10.0 mi WNW 11.5 mph 16.1 mph N/A   Scattered Clouds
12:55 PM 57.0 °F - 29.8 °F 36% 30.02 in 10.0 mi WNW 17.3 mph 21.9 mph N/A   Scattered Clouds
1:15 PM 57.4 °F - 29.3 °F 34% 30.02 in 10.0 mi NW 17.3 mph 26.5 mph N/A   Scattered Clouds
1:35 PM 57.9 °F - 30.9 °F 36% 30.00 in 10.0 mi West 15.0 mph 25.3 mph N/A   Scattered Clouds
1:55 PM 58.1 °F - 28.6 °F 32% 29.98 in 10.0 mi NW 15.0 mph 19.6 mph N/A   Scattered Clouds
2:15 PM 59.0 °F - 29.1 °F 32% 29.98 in 10.0 mi WNW 15.0 mph 19.6 mph N/A   Scattered Clouds
2:35 PM 60.3 °F - 26.8 °F 28% 29.97 in 10.0 mi WNW 15.0 mph 20.7 mph N/A   Scattered Clouds
2:55 PM 61.2 °F - 27.1 °F 27% 29.96 in 10.0 mi NW 15.0 mph 25.3 mph N/A   Scattered Clouds
3:15 PM 60.3 °F - 27.9 °F 29% 29.96 in 10.0 mi NW 13.8 mph 24.2 mph N/A   Scattered Clouds
3:35 PM 59.4 °F - 27.7 °F 30% 29.96 in 10.0 mi WNW 17.3 mph 24.2 mph N/A   Scattered Clouds
3:55 PM 60.8 °F - 28.0 °F 29% 29.95 in 10.0 mi WNW 16.1 mph 29.9 mph N/A   Scattered Clouds
4:15 PM 60.3 °F - 27.5 °F 29% 29.95 in 10.0 mi WNW 16.1 mph 29.9 mph N/A   Scattered Clouds
4:35 PM 60.8 °F - 27.7 °F 28% 29.95 in 10.0 mi WNW 17.3 mph 26.5 mph N/A   Scattered Clouds
4:55 PM 60.4 °F - 27.7 °F 29% 29.95 in 10.0 mi WNW 13.8 mph 23.0 mph N/A   Clear
5:15 PM 60.8 °F - 28.4 °F 29% 29.94 in 10.0 mi West 11.5 mph 24.2 mph N/A   Clear
5:35 PM 60.4 °F - 28.2 °F 29% 29.93 in 10.0 mi WNW 12.7 mph 23.0 mph N/A   Clear
5:55 PM 60.1 °F - 28.4 °F 30% 29.92 in 10.0 mi West 11.5 mph - N/A   Clear
6:15 PM 59.0 °F - 28.4 °F 31% 29.91 in 10.0 mi WNW 5.8 mph - N/A   Clear
6:35 PM 56.7 °F - 28.4 °F 34% 29.90 in 10.0 mi WNW 4.6 mph - N/A   Clear
6:55 PM 53.8 °F - 27.9 °F 37% 29.90 in 10.0 mi Calm Calm - N/A   Clear
7:15 PM 52.9 °F - 28.2 °F 39% 29.90 in 10.0 mi Calm Calm - N/A   Scattered Clouds
7:35 PM 52.0 °F - 29.3 °F 42% 29.90 in 10.0 mi WSW 3.5 mph - N/A   Scattered Clouds
7:55 PM 52.7 °F - 29.5 °F 41% 29.91 in 10.0 mi WSW 3.5 mph - N/A   Overcast
8:15 PM 53.2 °F - 29.3 °F 40% 29.92 in 10.0 mi SW 8.1 mph - N/A   Overcast
8:35 PM 57.0 °F - 32.0 °F 39% 29.91 in 10.0 mi West 9.2 mph 18.4 mph N/A   Overcast
8:55 PM 59.4 °F - 32.7 °F 37% 29.90 in 10.0 mi WNW 13.8 mph 19.6 mph N/A   Overcast
9:15 PM 58.8 °F - 32.4 °F 37% 29.89 in 10.0 mi NW 8.1 mph - N/A   Overcast
9:35 PM 57.4 °F - 32.4 °F 39% 29.88 in 10.0 mi NW 4.6 mph - N/A   Overcast
9:55 PM 55.4 °F - 32.4 °F 42% 29.87 in 10.0 mi West 4.6 mph - N/A   Overcast
10:15 PM 54.5 °F - 33.6 °F 45% 29.89 in 10.0 mi SW 3.5 mph - N/A   Overcast
10:35 PM 53.4 °F - 33.1 °F 46% 29.90 in 10.0 mi WSW 4.6 mph - N/A   Overcast
10:55 PM 54.9 °F - 32.2 °F 42% 29.91 in 10.0 mi West 5.8 mph - N/A   Overcast
11:15 PM 54.1 °F - 31.6 °F 42% 29.89 in 10.0 mi WNW 3.5 mph - N/A   Overcast
11:35 PM 52.5 °F - 32.0 °F 46% 29.88 in 10.0 mi West 4.6 mph - N/A   Overcast
11:55 PM 52.7 °F - 32.2 °F 46% 29.87 in 10.0 mi Calm Calm - N/A   Overcast